Wind_Speed
32 31 30 27 26 24 21 18 17 15 15 15 14 14 12 12 8 8 6 5 6 8 16 21 25 27 29 30 31 29 23 12 5 7 11 15 17 17 16 12 16 13 15 10 8 8 8 6 9 9 10 9 15 14
31 28 27 26 23 21 19 17 15 14 17 16 16 14 12 11 11 9 5 4 5 7 15 18 22 24 26 26 27 28 26 20 13 11 14 10 14 14 11 10 12 12 10 14 13 9 6 5 3 7 9 11 13 14
31 30 28 26 21 19 17 15 16 18 18 18 14 13 12 12 12 10 5 6 2 8 12 14 19 22 24 24 24 25 25 24 20 17 17 18 14 17 15 14 11 12 12 14 14 14 13 13 16 15 15 18 19 20
30 28 24 21 19 16 16 18 17 20 19 17 14 14 15 13 13 10 6 5 3 8 10 13 16 18 21 22 23 22 23 24 23 21 19 17 15 14 14 13 13 14 13 13 15 15 15 16 18 21 24 24 24 25
29 25 22 18 19 19 20 21 21 19 18 15 15 16 15 15 13 11 7 2 3 6 9 11 13 16 18 20 21 21 21 21 21 21 21 19 19 16 14 14 16 14 14 15 15 13 16 19 20 26 20 22 26 29
26 22 20 21 22 22 23 23 23 18 20 16 17 19 15 14 14 11 6 2 1 5 7 9 12 13 16 18 19 19 20 20 20 20 20 20 19 19 18 17 15 14 13 15 13 15 18 19 20 23 18 16 16 22
25 25 25 25 24 25 24 23 21 20 20 19 20 18 16 17 14 9 6 4 1 4 7 9 11 12 15 17 18 18 19 20 19 19 20 20 19 18 17 16 14 14 14 14 16 17 17 18 20 20 20 15 16 14
28 27 28 26 27 25 25 24 23 21 22 21 20 19 19 17 12 9 8 4 2 3 6 8 11 13 15 16 17 19 20 20 21 20 19 20 20 18 16 16 15 14 13 14 16 18 18 18 19 20 20 19 16 16
30 30 29 29 27 27 27 26 25 25 23 22 22 21 19 16 12 11 9 6 3 5 7 10 12 13 16 18 18 20 21 21 22 22 21 21 20 19 17 16 16 16 15 15 16 18 19 19 20 20 21 21 21 22
32 32 31 30 29 28 30 29 28 27 25 23 23 22 19 17 14 12 9 6 5 7 9 10 12 14 17 18 19 21 22 22 23 24 23 24 22 20 20 19 17 17 16 17 18 19 19 19 19 21 21 22 23 24
34 33 33 31 30 30 32 31 30 28 26 24 23 22 21 19 17 15 11 10 9 9 11 12 14 16 19 20 21 22 23 24 23 23 24 25 25 23 22 21 20 19 19 19 19 20 20 20 20 21 21 22 23 26
37 36 33 32 31 32 33 32 31 29 27 24 23 24 24 22 20 17 15 14 12 11 13 14 16 18 20 21 22 23 24 26 26 25 25 24 26 26 25 24 23 22 22 22 22 22 22 22 21 21 21 22 24 26
38 36 35 34 33 33 33 33 31 29 26 24 25 26 25 24 21 19 16 16 15 14 15 16 18 21 23 23 24 25 26 26 27 27 27 25 27 27 27 27 26 25 25 25 25 26 26 25 25 24 24 25 26 27
39 37 36 34 33 32 31 32 31 29 28 27 27 27 27 26 23 21 20 19 18 18 18 19 20 23 25 26 27 28 28 28 28 27 27 29 30 29 29 28 29 29 29 28 28 27 27 27 27 28 28 28 28 28
40 37 35 33 31 31 30 31 31 31 31 29 29 29 28 27 27 26 25 23 22 22 22 21 23 25 28 28 28 30 31 30 29 30 31 32 31 30 30 30 29 29 30 31 30 29 29 30 29 29 29 29 29 30
40 38 34 31 30 29 30 30 32 33 33 32 29 28 29 29 29 29 28 27 27 25 25 25 27 29 30 28 29 33 32 30 29 31 31 32 32 32 32 32 31 31 32 33 32 30 29 30 29 29 29 29 29 30
39 32 31 32 31 31 31 32 33 34 36 31 27 29 30 32 32 30 30 29 29 27 27 28 30 31 31 31 33 32 31 31 31 32 31 32 33 34 34 34 34 34 34 34 32 30 29 29 28 28 28 29 30 30
34 33 37 36 34 32 32 32 34 35 32 29 31 33 33 34 32 32 33 32 31 30 31 31 33 30 31 35 33 31 31 32 32 32 32 33 33 34 35 35 36 36 36 36 35 30 29 29 29 28 28 29 29 29
37 41 42 36 32 32 32 33 34 32 31 33 33 34 34 33 34 35 34 33 33 34 34 32 30 31 35 35 32 32 33 33 34 33 33 34 35 35 35 37 37 37 36 35 34 31 29 28 29 28 28 28 29 28
41 42 38 36 36 35 35 35 32 32 33 33 34 35 32 33 36 36 37 37 37 35 31 28 32 36 36 32 32 33 34 34 35 34 34 34 35 35 35 37 37 37 36 35 34 31 28 28 29 28 27 28 28 28
42 40 40 40 40 38 38 34 34 33 33 34 34 35 34 33 35 35 35 36 34 27 27 31 35 35 34 32 33 33 34 36 35 36 35 34 35 36 37 38 37 37 35 33 31 30 28 28 28 27 28 28 28 26
43 42 43 42 40 39 40 36 35 34 34 34 33 33 33 32 33 34 36 35 29 26 32 36 35 33 33 32 33 34 36 36 36 36 36 35 35 36 37 39 37 38 36 33 32 31 30 29 28 28 28 27 28 27
45 45 43 42 42 42 40 38 36 34 32 30 30 32 32 33 35 36 37 33 29 33 38 38 34 32 31 33 35 36 36 36 36 36 36 36 36 37 39 39 38 37 35 33 31 31 31 29 29 30 29 27 27 27
47 45 44 42 44 45 42 38 34 31 32 30 31 33 34 35 35 36 34 30 34 37 37 34 31 31 33 35 36 36 36 36 36 36 37 36 37 39 40 38 36 36 34 31 29 29 30 29 30 30 30 28 27 26
48 47 47 49 50 45 41 37 34 33 31 34 36 35 34 33 33 33 29 30 34 32 31 31 31 33 35 36 36 35 36 36 36 36 38 38 38 39 39 37 35 35 33 29 28 30 30 30 31 30 30 29 27 26
52 52 51 49 47 44 41 38 36 34 36 38 37 36 34 34 33 30 28 31 31 31 32 33 34 35 35 36 36 37 38 37 37 38 38 38 39 39 38 37 36 35 34 32 31 32 33 34 33 31 32 30 28 27
51 53 51 48 44 42 40 38 37 37 38 38 36 34 34 33 33 33 34 35 34 35 36 35 36 37 37 37 38 39 38 38 38 38 39 39 39 40 40 38 37 36 35 34 33 34 34 35 34 33 32 31 30 29
50 49 47 45 44 43 42 42 41 39 38 37 36 35 36 35 36 37 36 36 37 38 38 37 38 39 39 40 40 39 39 39 39 40 41 41 42 41 40 38 37 37 35 34 35 36 36 35 34 33 32 31 30 29
47 46 47 46 46 46 45 42 39 36 36 37 39 39 38 39 40 39 40 41 41 41 40 39 39 39 40 39 38 39 39 40 41 43 43 43 43 42 40 38 37 36 35 36 37 38 37 35 34 32 30 29 28 28
46 45 47 47 47 46 43 40 38 38 39 40 42 41 40 41 42 42 42 43 42 42 42 41 41 41 41 40 40 41 43 44 45 45 44 42 42 41 40 38 36 36 37 37 38 37 35 33 31 31 31 30 28 27
45 47 46 47 47 43 41 41 42 42 42 43 43 43 43 44 44 44 44 44 44 43 43 43 43 43 43 44 44 44 44 45 44 43 42 41 40 38 36 36 37 37 38 38 37 34 33 31 31 30 30 28 26 27
45 46 44 44 43 43 44 44 45 46 46 45 45 46 46 46 46 46 46 45 45 45 45 45 46 46 46 45 45 44 43 43 42 41 40 38 36 36 36 37 37 37 37 36 34 32 32 32 31 29 26 24 25 26
48 47 48 49 49 48 48 48 48 47 47 47 47 47 47 48 47 46 46 46 47 47 48 49 47 45 45 44 43 43 42 42 40 38 37 37 36 35 35 36 35 34 33 32 31 30 29 29 27 24 24 24 24 25
Wind_Direction
174 178 182 185 184 185 187 191 200 209 222 224 217 223 229 237 238 250 261 290 308 347 7 9 8 9 8 8 12 13 11 2 316 337 352 16 18 25 27 18 24 32 38 43 33 25 15 351 291 282 257 258 228 257
177 180 184 187 186 191 193 198 214 229 225 215 207 210 220 239 250 236 234 272 291 6 13 10 11 11 10 7 10 14 17 12 331 302 311 321 345 357 5 5 2 358 8 11 13 1 344 325 299 256 266 283 285 266
181 184 188 186 188 202 206 213 222 228 219 206 199 210 222 234 238 232 217 244 318 19 11 10 14 11 8 5 4 12 15 18 14 1 326 311 307 314 325 334 329 323 321 325 335 329 322 307 314 301 273 274 277 271
186 185 187 188 196 209 219 228 223 221 211 205 198 209 219 220 225 225 214 238 31 19 9 12 15 10 6 3 3 6 9 11 12 9 2 356 344 334 323 322 324 321 323 324 322 321 320 311 297 287 279 275 274 272
188 184 193 195 208 213 222 232 217 207 212 203 212 211 208 213 217 218 215 216 43 10 5 11 11 7 1 359 359 1 3 5 5 6 4 357 351 344 343 337 332 332 325 326 325 321 319 314 308 315 296 278 267 266
187 190 200 207 214 220 223 222 214 195 208 203 213 220 208 212 215 215 210 211 27 10 5 2 2 358 354 354 355 355 356 357 358 357 360 1 356 351 349 342 339 334 330 327 326 332 324 321 324 336 310 326 288 263
192 199 208 213 217 216 222 215 210 205 203 203 215 215 212 213 214 213 212 220 265 354 360 359 348 344 347 346 348 347 348 348 349 349 350 352 354 349 345 345 340 338 338 337 339 336 329 323 329 332 347 311 303 298
198 205 212 214 218 219 215 211 204 204 205 209 214 213 212 211 210 210 220 223 262 342 345 345 340 337 338 337 338 339 340 340 339 342 342 342 344 346 344 340 335 334 336 337 338 337 339 340 338 335 335 329 326 318
203 209 213 215 217 219 212 209 205 207 209 212 213 213 210 208 209 217 225 236 273 311 321 327 330 333 333 334 334 334 334 334 333 335 332 335 335 338 338 337 335 336 334 333 334 332 333 336 336 339 338 336 330 322
207 211 213 215 218 218 213 210 209 211 212 215 215 212 210 211 215 224 230 245 272 295 307 318 321 327 328 330 331 330 329 328 330 331 328 327 333 328 328 329 332 333 331 328 326 324 324 324 326 328 328 327 326 325
211 213 214 217 220 221 215 212 212 214 217 219 218 217 217 218 224 231 239 253 271 285 300 308 317 321 324 325 326 327 326 327 326 325 323 323 328 324 325 323 323 323 323 320 320 321 321 322 321 322 323 325 326 324
212 213 215 218 220 222 218 214 214 217 220 222 224 224 224 226 232 238 245 254 263 277 289 300 310 316 317 318 319 323 322 324 326 324 320 322 323 323 324 322 321 318 313 311 313 315 316 317 316 315 317 320 325 326
212 213 216 218 220 223 220 216 218 220 222 226 230 229 228 231 234 241 246 252 260 272 282 294 303 310 312 312 314 314 316 320 323 321 321 320 319 321 321 321 320 319 316 312 310 309 309 309 309 313 315 318 320 324
213 215 216 218 221 222 222 220 222 225 228 231 234 236 235 234 238 243 248 254 262 270 280 293 302 306 309 310 312 309 315 317 318 319 321 318 319 322 324 324 321 319 316 314 312 306 304 307 309 311 312 313 317 322
214 215 217 219 221 223 225 224 224 228 232 236 238 240 239 239 243 246 251 259 266 271 278 290 300 306 306 307 309 307 312 315 314 314 315 317 318 321 322 322 319 315 313 312 312 310 306 304 305 306 308 311 315 319
216 219 218 221 222 225 228 230 230 231 234 238 240 246 246 245 246 250 254 260 264 266 274 286 298 301 303 305 303 303 311 310 309 309 313 315 316 317 319 320 319 318 315 313 312 308 303 301 301 304 308 309 310 312
219 219 223 224 225 227 230 233 234 234 236 239 243 247 248 248 249 253 257 260 264 267 273 287 294 299 301 300 299 306 305 305 305 307 311 313 313 314 317 318 320 318 316 316 314 309 304 301 301 304 307 308 308 311
218 219 225 226 227 229 232 236 238 239 240 240 241 244 246 249 250 252 257 262 266 269 276 285 292 298 295 294 303 302 300 302 304 306 310 310 310 311 314 317 317 319 318 316 315 309 304 304 304 303 306 306 307 309
217 223 226 228 229 229 232 236 239 239 238 239 243 246 247 248 251 254 256 260 264 270 278 287 291 290 289 299 300 297 299 302 303 306 309 308 308 310 314 315 316 316 317 315 314 309 300 302 305 305 307 307 307 309
221 226 229 227 228 229 231 235 237 238 237 239 242 247 249 251 252 255 258 262 267 273 282 286 284 288 295 297 294 295 298 300 302 304 305 305 306 308 311 313 315 315 315 312 312 309 302 302 304 307 308 306 306 306
222 223 224 226 227 228 231 233 235 237 237 238 240 244 247 249 253 258 261 265 269 277 278 280 284 291 294 292 293 295 298 299 300 302 302 303 304 308 311 313 314 314 313 310 306 305 305 306 308 307 305 304 303 305
219 220 222 225 226 227 230 232 235 236 237 239 239 244 247 251 253 257 260 265 271 276 276 279 287 289 287 288 290 293 294 297 299 299 300 303 304 307 310 313 313 312 312 309 303 301 302 305 307 306 304 303 301 304
216 218 220 221 223 227 229 231 233 235 237 239 243 246 250 253 256 259 264 269 277 277 277 283 286 283 282 284 288 292 294 296 297 297 300 303 305 308 309 311 312 311 310 307 303 301 300 302 306 307 303 301 297 299
214 213 213 214 220 225 228 226 229 231 237 244 250 251 251 253 257 262 270 277 275 276 281 284 281 279 283 288 291 292 293 294 295 298 300 304 306 306 308 311 311 309 308 305 304 301 301 303 305 307 304 298 294 294
202 203 209 216 222 225 225 226 231 239 246 247 248 249 253 257 260 263 270 272 272 277 277 276 280 285 289 290 290 291 292 293 297 297 299 302 303 305 307 308 308 307 306 303 298 299 301 303 303 304 304 299 292 291
206 211 216 220 223 225 228 232 237 244 245 248 251 253 253 251 256 264 269 271 274 276 278 281 286 289 290 289 291 292 293 294 296 297 298 299 300 302 304 307 307 304 303 300 297 298 300 303 303 303 302 299 291 288
211 214 218 222 226 229 234 238 242 244 247 250 251 252 252 256 261 266 269 271 276 279 281 282 285 286 287 289 289 289 291 293 294 294 296 297 299 301 303 304 303 302 300 297 296 297 299 300 299 301 299 295 289 285
215 218 222 227 232 235 237 238 241 245 249 252 253 257 258 260 266 269 273 276 277 278 280 282 283 286 287 287 288 290 290 290 291 293 295 297 299 300 301 302 300 296 295 294 295 297 298 299 297 298 297 291 284 281
219 221 226 229 232 235 237 240 244 251 253 253 254 256 259 263 268 273 275 275 276 278 281 282 283 284 286 287 287 286 287 289 291 294 296 298 299 298 299 297 295 294 294 294 295 296 298 298 295 292 293 292 285 278
223 227 231 233 237 240 242 245 247 249 251 254 258 261 264 266 267 269 272 275 277 279 280 281 282 283 285 285 286 288 289 290 291 293 294 294 294 295 295 294 292 292 292 293 294 296 296 294 292 290 289 290 282 276
230 233 235 238 240 242 243 246 249 252 254 257 260 263 264 265 267 269 271 273 276 277 279 280 281 282 283 284 286 287 288 290 291 291 292 292 292 291 290 289 288 289 290 291 292 292 292 293 292 291 288 284 277 275
233 235 237 240 240 243 246 249 250 252 254 258 261 262 263 264 266 268 271 273 275 276 277 279 281 284 286 286 286 287 287 287 288 289 289 288 287 289 289 288 287 287 288 289 290 289 289 290 291 290 285 280 279 279
236 238 240 242 244 246 250 252 254 255 256 257 258 260 262 265 268 271 273 274 276 277 279 282 283 283 283 284 284 285 286 286 287 287 287 288 289 289 288 288 287 287 287 288 289 289 290 290 289 285 283 283 282 279
Height
5506 5513 5521 5527 5532 5537 5543 5548 5552 5555 5558 5561 5565 5572 5575 5577 5576 5579 5581 5580 5580 5579 5574 5569 5565 5558 5553 5549 5543 5538 5534 5530 5528 5527 5524 5522 5519 5517 5514 5511 5509 5507 5504 5502 5500 5498 5499 5498 5497 5496 5495 5493 5493 5493
5505 5512 5519 5527 5532 5538 5541 5544 5549 5551 5556 5559 5562 5565 5569 5574 5577 5576 5576 5576 5578 5574 5570 5568 5563 5557 5553 5549 5544 5540 5535 5530 5528 5526 5525 5523 5521 5519 5516 5514 5511 5509 5507 5504 5504 5502 5500 5499 5497 5495 5494 5493 5491 5490
5505 5512 5519 5523 5529 5537 5539 5541 5545 5550 5552 5555 5557 5563 5567 5569 5574 5577 5573 5574 5574 5569 5568 5566 5560 5556 5552 5548 5546 5541 5536 5532 5528 5526 5523 5521 5520 5518 5516 5514 5511 5509 5506 5504 5503 5501 5499 5498 5495 5494 5492 5490 5489 5488
5504 5510 5517 5521 5527 5531 5536 5542 5541 5548 5551 5554 5554 5559 5564 5563 5570 5573 5570 5571 5568 5567 5566 5562 5558 5554 5551 5548 5545 5540 5536 5532 5529 5525 5522 5519 5517 5515 5513 5511 5509 5507 5505 5503 5500 5498 5495 5493 5491 5490 5488 5486 5485 5484
5502 5507 5515 5516 5523 5528 5534 5539 5541 5544 5552 5550 5555 5558 5558 5560 5566 5569 5567 5564 5564 5566 5562 5559 5556 5554 5551 5548 5544 5540 5536 5533 5529 5526 5522 5519 5515 5513 5511 5509 5506 5504 5502 5500 5498 5495 5492 5489 5485 5481 5478 5477 5476 5476
5498 5502 5509 5515 5522 5529 5532 5537 5541 5537 5548 5548 5554 5560 5555 5558 5563 5564 5561 5561 5561 5560 5558 5556 5554 5552 5550 5547 5543 5540 5536 5533 5529 5526 5522 5519 5515 5511 5508 5506 5504 5501 5499 5497 5495 5492 5489 5485 5481 5477 5473 5470 5466 5467
5493 5501 5508 5515 5520 5525 5530 5534 5537 5539 5542 5544 5552 5553 5553 5557 5559 5558 5558 5559 5557 5556 5555 5553 5552 5551 5548 5545 5542 5539 5536 5532 5529 5526 5521 5518 5514 5511 5507 5504 5502 5499 5496 5493 5490 5488 5485 5481 5478 5475 5471 5468 5466 5464
5492 5499 5506 5512 5518 5521 5526 5531 5533 5536 5540 5544 5547 5548 5551 5553 5553 5553 5554 5554 5553 5552 5551 5551 5550 5548 5546 5544 5541 5537 5535 5531 5528 5524 5521 5517 5513 5510 5507 5503 5500 5497 5494 5491 5488 5485 5482 5478 5474 5471 5468 5466 5463 5460
5489 5496 5503 5509 5514 5519 5523 5526 5529 5534 5537 5540 5542 5545 5547 5548 5548 5550 5551 5550 5549 5550 5549 5548 5547 5546 5544 5542 5539 5536 5532 5529 5526 5522 5518 5515 5512 5508 5505 5502 5499 5496 5493 5489 5486 5483 5479 5475 5472 5469 5465 5462 5459 5456
5486 5493 5500 5506 5510 5514 5519 5523 5526 5530 5533 5536 5538 5540 5542 5543 5545 5547 5547 5546 5545 5546 5546 5546 5544 5543 5542 5539 5536 5533 5529 5526 5522 5520 5515 5511 5509 5506 5503 5499 5496 5493 5490 5487 5483 5480 5477 5473 5470 5466 5462 5459 5455 5452
5483 5490 5496 5502 5506 5511 5515 5518 5522 5525 5528 5530 5532 5535 5536 5538 5541 5542 5542 5543 5543 5543 5543 5542 5541 5540 5538 5536 5533 5530 5526 5522 5520 5517 5511 5508 5505 5502 5499 5496 5493 5489 5486 5483 5481 5477 5474 5470 5466 5462 5458 5455 5451 5446
5480 5486 5492 5497 5502 5506 5509 5512 5515 5519 5521 5524 5527 5529 5531 5534 5535 5537 5538 5539 5539 5539 5539 5538 5537 5536 5534 5532 5529 5526 5523 5519 5516 5512 5508 5505 5501 5498 5494 5491 5488 5485 5482 5479 5476 5473 5469 5466 5462 5458 5455 5451 5447 5442
5476 5482 5488 5493 5497 5500 5503 5506 5509 5511 5514 5517 5520 5523 5526 5528 5530 5532 5533 5534 5535 5535 5535 5534 5533 5532 5529 5527 5525 5521 5518 5515 5511 5508 5504 5501 5497 5494 5490 5487 5483 5480 5477 5474 5470 5467 5464 5460 5456 5453 5449 5445 5441 5436
5471 5477 5482 5485 5489 5492 5495 5499 5501 5504 5508 5511 5514 5517 5519 5522 5525 5527 5528 5529 5530 5530 5529 5529 5528 5527 5524 5522 5519 5516 5514 5510 5507 5503 5500 5495 5492 5488 5484 5481 5478 5474 5471 5467 5464 5461 5457 5453 5449 5445 5442 5439 5435 5430
5464 5470 5473 5477 5481 5484 5487 5490 5494 5497 5501 5504 5507 5510 5514 5516 5519 5521 5522 5523 5524 5523 5523 5523 5522 5521 5518 5516 5514 5510 5507 5505 5501 5498 5494 5490 5486 5483 5479 5475 5472 5468 5464 5460 5457 5453 5449 5446 5443 5439 5435 5432 5428 5424
5455 5459 5464 5468 5472 5475 5479 5483 5486 5490 5493 5497 5502 5505 5507 5510 5512 5514 5516 5517 5517 5517 5516 5516 5516 5514 5512 5510 5508 5504 5502 5499 5496 5492 5489 5485 5481 5477 5473 5469 5465 5462 5457 5453 5450 5446 5443 5439 5436 5432 5428 5425 5421 5418
5446 5454 5456 5459 5463 5467 5471 5476 5479 5483 5484 5492 5497 5497 5499 5502 5505 5507 5508 5510 5510 5510 5510 5510 5509 5507 5505 5502 5500 5498 5496 5493 5490 5486 5483 5478 5475 5471 5467 5463 5459 5454 5450 5446 5443 5439 5435 5432 5429 5425 5422 5418 5414 5411
5441 5444 5445 5450 5455 5460 5464 5468 5470 5475 5482 5487 5488 5488 5491 5493 5497 5500 5500 5502 5503 5503 5503 5503 5502 5501 5497 5494 5493 5491 5488 5485 5482 5479 5476 5472 5468 5464 5461 5457 5452 5448 5443 5438 5434 5431 5427 5424 5421 5418 5415 5411 5408 5404
5431 5433 5437 5443 5449 5452 5456 5460 5463 5469 5474 5477 5479 5480 5483 5486 5488 5490 5493 5493 5494 5494 5495 5496 5494 5491 5488 5487 5485 5482 5479 5477 5475 5472 5469 5465 5461 5457 5454 5449 5445 5441 5436 5431 5427 5423 5419 5416 5414 5411 5408 5404 5401 5398
5421 5424 5430 5435 5439 5444 5447 5451 5457 5461 5465 5469 5470 5472 5476 5479 5479 5482 5483 5484 5485 5486 5488 5487 5484 5481 5480 5479 5477 5474 5472 5470 5467 5464 5461 5457 5454 5450 5447 5442 5438 5433 5428 5424 5420 5416 5412 5410 5407 5404 5401 5397 5395 5392
5411 5417 5422 5426 5430 5435 5439 5444 5448 5453 5456 5459 5462 5464 5467 5470 5471 5472 5473 5474 5475 5480 5479 5476 5473 5473 5471 5469 5467 5466 5464 5461 5459 5456 5454 5451 5447 5443 5439 5435 5430 5426 5421 5417 5413 5409 5406 5403 5400 5397 5394 5390 5388 5386
5402 5407 5412 5416 5422 5426 5430 5435 5439 5444 5448 5451 5454 5456 5458 5461 5462 5463 5463 5464 5469 5472 5468 5465 5465 5464 5462 5460 5458 5457 5455 5453 5451 5448 5445 5442 5439 5435 5431 5426 5422 5417 5413 5409 5405 5402 5399 5396 5393 5389 5386 5384 5380 5378
5392 5397 5403 5408 5413 5417 5422 5426 5431 5436 5440 5444 5446 5448 5450 5452 5452 5453 5453 5458 5460 5458 5454 5455 5455 5453 5452 5450 5449 5447 5445 5443 5441 5438 5436 5433 5430 5426 5422 5418 5413 5408 5404 5401 5398 5395 5392 5388 5385 5381 5378 5376 5374 5372
5382 5388 5394 5399 5403 5406 5413 5419 5425 5429 5432 5435 5437 5438 5440 5442 5444 5444 5446 5448 5446 5444 5445 5445 5445 5444 5442 5440 5439 5437 5435 5433 5431 5429 5427 5424 5421 5417 5413 5409 5405 5400 5397 5393 5390 5387 5384 5381 5378 5374 5371 5369 5367 5365
5374 5377 5382 5386 5392 5400 5407 5413 5417 5421 5425 5424 5426 5428 5431 5433 5434 5436 5438 5436 5434 5436 5435 5435 5434 5433 5432 5430 5428 5427 5426 5424 5422 5420 5417 5414 5410 5407 5403 5400 5396 5392 5389 5386 5383 5380 5377 5373 5370 5367 5364 5361 5359 5357
5361 5367 5375 5381 5387 5394 5401 5406 5410 5412 5413 5414 5416 5420 5421 5422 5425 5427 5426 5425 5426 5426 5426 5425 5424 5423 5422 5420 5419 5417 5416 5414 5412 5409 5406 5403 5401 5398 5394 5390 5387 5383 5380 5377 5374 5371 5368 5365 5361 5359 5356 5353 5351 5349
5350 5360 5369 5377 5383 5388 5394 5397 5400 5401 5402 5404 5406 5408 5411 5414 5415 5415 5415 5415 5416 5416 5415 5415 5414 5413 5412 5411 5409 5406 5405 5403 5401 5399 5396 5393 5390 5387 5384 5380 5377 5374 5371 5367 5364 5362 5359 5356 5352 5349 5347 5344 5342 5341
5349 5358 5366 5371 5374 5379 5382 5385 5387 5389 5392 5394 5397 5399 5400 5403 5403 5402 5404 5406 5405 5405 5405 5404 5404 5403 5401 5400 5398 5396 5394 5392 5390 5388 5385 5382 5379 5375 5372 5369 5366 5363 5360 5357 5355 5352 5349 5346 5343 5340 5337 5334 5332 5331
5344 5352 5355 5360 5364 5366 5371 5376 5380 5381 5382 5383 5384 5385 5389 5390 5392 5393 5393 5393 5393 5393 5394 5393 5392 5391 5390 5389 5387 5385 5383 5380 5378 5376 5373 5370 5367 5363 5361 5358 5354 5352 5350 5347 5344 5341 5338 5335 5332 5329 5327 5325 5323 5322
5339 5343 5345 5349 5353 5356 5363 5366 5368 5368 5368 5370 5371 5375 5379 5380 5380 5381 5381 5382 5382 5382 5381 5380 5380 5379 5378 5377 5375 5373 5371 5368 5365 5363 5360 5357 5354 5352 5349 5346 5343 5341 5338 5336 5333 5330 5327 5324 5321 5319 5317 5315 5313 5313
5328 5331 5336 5339 5342 5348 5351 5353 5354 5355 5358 5359 5360 5364 5366 5366 5368 5369 5370 5370 5370 5370 5369 5368 5367 5366 5366 5364 5363 5361 5358 5354 5352 5349 5347 5345 5342 5339 5336 5334 5332 5329 5327 5324 5322 5319 5317 5314 5312 5310 5308 5306 5305 5304
5316 5320 5326 5330 5334 5336 5338 5339 5339 5341 5343 5346 5350 5351 5353 5353 5356 5357 5358 5358 5357 5357 5356 5355 5354 5353 5352 5350 5348 5346 5344 5341 5338 5336 5334 5332 5330 5328 5325 5323 5320 5318 5315 5313 5311 5309 5307 5305 5303 5301 5299 5297 5297 5296
5304 5309 5312 5314 5318 5322 5326 5326 5326 5328 5331 5334 5336 5337 5340 5340 5343 5346 5344 5344 5343 5342 5342 5341 5340 5338 5337 5335 5334 5332 5330 5328 5326 5323 5321 5319 5318 5316 5313 5311 5309 5307 5305 5303 5301 5298 5296 5295 5294 5292 5291 5290 5288 5288